Weather History for LKPR - November, 2012

Change the Weather History Date:

Monday, November 26, 2012

  Actual Average Record
Temperature  
Mean Temperature 38 °F -  
Max Temperature 45 °F 36 °F 48 °F (2006)
Min Temperature 31 °F 27 °F 23 °F (2004)
Degree Days  
Heating Degree Days 27    
Moisture  
Dew Point 37 °F    
Average Humidity 84    
Maximum Humidity 93    
Minimum Humidity 72    
Precipitation  
Precipitation 0.00 in 0.03 in - ()
Sea Level Pressure  
Sea Level Pressure 29.90 in    
Wind  
Wind Speed 7 mph ()    
Max Wind Speed 17 mph    
Max Gust Speed -    
Visibility 7.1 miles    
Events Rain    
Averages and records for this station are not official NWS values.
T = Trace of Precipitation, MM = Missing Value Source: Averaged Metar Reports

Daily Weather History Graph

Daily Weather History Graph

Search for Another Location

Airport or City:

Trip Planner

Search our weather history database for the weather conditions in past years. The results will help you decide how hot, cold, wet, or windy it might be!

Date:

Astronomy

Nov. 26, 2012 Rise Set
Actual Time 7:33 AM CET 4:06 PM CET
Civil Twilight 6:56 AM CET 4:43 PM CET
Nautical Twilight 6:16 AM CET 5:24 PM CET
Astronomical Twilight 5:37 AM CET 6:03 PM CET
Moon 2:55 PM CET (11/26) 5:19 AM CET (11/26)
Length of Visible Light 9h 47m
Length of Day
8h 33m
Waxing Gibbous, 96% of the Moon is Illuminated
Nov 26
Waxing Gibbous
Nov 28
Full
Dec 6
Last Quarter
Dec 13
New
Dec 20
First Quarter

Hourly Weather History & Observations

Time (CET) Temp. Windchill Dew Point Humidity Pressure Visibility Wind Dir Wind Speed Gust Speed Precip Events Conditions
12:00 AM 41.0 °F 34.3 °F 35.6 °F 81% 30.01 in - SW 11.5 mph - N/A   Clear
12:30 AM 41.0 °F 33.5 °F 35.6 °F 81% 30.01 in - SW 13.8 mph - N/A   Clear
1:00 AM 42 °F - 36 °F 72% 30.04 in 19 mi SW 15.7 mph - -  
1:00 AM 41.0 °F 32.5 °F 35.6 °F 81% 30.01 in - SSW 17.3 mph - N/A   Clear
1:30 AM 41.0 °F 33.1 °F 35.6 °F 81% 29.98 in - SW 15.0 mph - N/A   Clear
2:00 AM 41.0 °F 35.8 °F 35.6 °F 81% 30.01 in - WSW 8.1 mph - N/A   Clear
2:30 AM 37.4 °F 32.8 °F 33.8 °F 87% 30.01 in - WSW 5.8 mph - N/A   Clear
3:00 AM 37.4 °F 33.8 °F 33.8 °F 87% 30.01 in - SSW 4.6 mph - N/A   Clear
3:30 AM 37.4 °F 31.4 °F 32.0 °F 81% 29.98 in - South 8.1 mph - N/A   Clear
4:00 AM 32.0 °F - 28.4 °F 87% 29.98 in - East 2.3 mph - N/A   Clear
4:30 AM 35.6 °F - 32.0 °F 87% 29.98 in - East 2.3 mph - N/A   Clear
5:00 AM 35.6 °F 30.7 °F 32.0 °F 87% 29.98 in - East 5.8 mph - N/A   Clear
5:30 AM 35.6 °F 32.8 °F 32.0 °F 87% 29.98 in - SE 3.5 mph - N/A   Clear
6:00 AM 35.6 °F 32.8 °F 32.0 °F 87% 29.98 in - ESE 3.5 mph - N/A   Clear
6:30 AM 37.4 °F 32.8 °F 32.0 °F 81% 29.98 in - SE 5.8 mph - N/A   Clear
7:00 AM 36 °F - 33 °F 86% 30.03 in 16 mi ESE 6.7 mph - -   Mostly Cloudy
7:00 AM 37.4 °F 32.8 °F 33.8 °F 87% 29.98 in - ESE 5.8 mph - N/A   Clear
7:30 AM 39.2 °F 34.2 °F 33.8 °F 81% 29.98 in - SE 6.9 mph - N/A   Clear
8:00 AM 39.2 °F 34.2 °F 33.8 °F 81% 29.98 in - SE 6.9 mph - N/A   Clear
8:30 AM 39.2 °F 35.0 °F 35.6 °F 87% 29.95 in - SSE 5.8 mph - N/A   Clear
9:00 AM 41.0 °F 36.4 °F 35.6 °F 81% 29.95 in - SE 6.9 mph - N/A   Clear
9:30 AM 41.0 °F 36.4 °F 37.4 °F 87% 29.95 in - SE 6.9 mph - N/A   Clear
10:00 AM 42.8 °F 41.1 °F 37.4 °F 81% 29.95 in - SE 3.5 mph - N/A   Clear
10:30 AM 44.6 °F 41.4 °F 37.4 °F 76% 29.95 in - ESE 5.8 mph - N/A   Clear
11:00 AM 42.8 °F 40.1 °F 37.4 °F 81% 29.92 in - East 4.6 mph - N/A   Clear
11:30 AM 44.6 °F 41.4 °F 37.4 °F 76% 29.92 in - East 5.8 mph - N/A   Clear
12:00 PM 42.8 °F 38.6 °F 37.4 °F 81% 29.89 in - East 6.9 mph - N/A   Clear
12:30 PM 44.6 °F 42.2 °F 37.4 °F 76% 29.89 in - East 4.6 mph - N/A   Clear
1:00 PM 44 °F - 39 °F 75% 29.91 in 7 mi East 6.7 mph - -   Mostly Cloudy
1:00 PM 44.6 °F 40.7 °F 39.2 °F 81% 29.86 in - East 6.9 mph - N/A   Clear
1:30 PM 44.6 °F 41.4 °F 39.2 °F 81% 29.86 in - ENE 5.8 mph - N/A   Clear
2:00 PM 44.6 °F 41.4 °F 39.2 °F 81% 29.86 in - East 5.8 mph - N/A   Clear
2:30 PM 44.6 °F 41.4 °F 39.2 °F 81% 29.86 in - East 5.8 mph - N/A   Clear
3:00 PM 44.6 °F 42.2 °F 41.0 °F 87% 29.86 in 6.2 mi East 4.6 mph - N/A   Scattered Clouds
3:30 PM 46.4 °F 44.3 °F 41.0 °F 81% 29.86 in 6.2 mi East 4.6 mph - N/A   Mostly Cloudy
4:00 PM 44.6 °F 40.7 °F 41.0 °F 87% 29.83 in 6.2 mi East 6.9 mph - N/A   Overcast
4:30 PM 44.6 °F 41.4 °F 41.0 °F 87% 29.83 in 4.3 mi ENE 5.8 mph - N/A   Overcast
5:00 PM 44.6 °F 41.4 °F 39.2 °F 81% 29.83 in 6.2 mi SSE 5.8 mph - N/A   Overcast
5:30 PM 44.6 °F 39.7 °F 41.0 °F 87% 29.80 in 6.2 mi SE 9.2 mph - N/A   Overcast
6:00 PM 44.6 °F 40.7 °F 41.0 °F 87% 29.80 in 6.2 mi SSE 6.9 mph - N/A   Overcast
6:30 PM 44.6 °F 40.7 °F 39.2 °F 81% 29.80 in 6.2 mi SSE 6.9 mph - N/A   Overcast
7:00 PM 44 °F - 40 °F 81% 29.84 in 6 mi SSE 4.5 mph - -   Overcast
7:00 PM 44.6 °F 40.7 °F 41.0 °F 87% 29.80 in 6.2 mi SSE 6.9 mph - N/A   Overcast
7:30 PM 42.8 °F 38.6 °F 39.2 °F 87% 29.80 in 6.2 mi SE 6.9 mph - N/A   Overcast
8:00 PM 42.8 °F 37.0 °F 39.2 °F 87% 29.77 in 6.2 mi SE 10.4 mph - N/A   Overcast
8:30 PM 42.8 °F 38.0 °F 39.2 °F 87% 29.77 in 6.2 mi SSE 8.1 mph - N/A   Overcast
9:00 PM 42.8 °F 37.5 °F 41.0 °F 93% 29.77 in 6.2 mi SSE 9.2 mph - N/A   Overcast
9:30 PM 42.8 °F 37.5 °F 39.2 °F 87% 29.74 in 6.2 mi SE 9.2 mph - N/A Rain Light Rain
10:00 PM 42.8 °F 39.3 °F 41.0 °F 93% 29.77 in 6.2 mi SSE 5.8 mph - N/A Rain Light Rain
10:16 PM 42.8 °F 40.1 °F 39.2 °F 87% 29.77 in 6.2 mi SSE 4.6 mph - N/A   Overcast
10:30 PM 42.8 °F 39.3 °F 39.2 °F 87% 29.77 in 6.2 mi SE 5.8 mph - N/A Rain Light Rain
10:43 PM 42.8 °F 40.1 °F 39.2 °F 87% 29.77 in 6.2 mi ESE 4.6 mph - N/A   Overcast
11:00 PM 42.8 °F 41.1 °F 39.2 °F 87% 29.77 in 6.2 mi ESE 3.5 mph - N/A   Overcast
11:30 PM 42.8 °F 41.1 °F 41.0 °F 93% 29.77 in 6.2 mi South 3.5 mph - N/A   Overcast